THORAD DELTA 1 DEB, 8140

Orbit data source: Space-Track

THORAD DELTA 1 DEB, 8140 is space debris in SSO originally from a launch on Fri, 15 Nov 1974 UTC launched from the Air Force Western Test Range (AFWTR). Debris objects in space refer to the collection of defunct objects orbiting the Earth. Examples of debris include non-operational satellites, rocket bodies, and fragments generated from explosions, collisions, or faulty payload assembly.

Loading next visibility...
Identifier
8140, 1974-089J
Orbit
SSO
Country
Flag of USUS
Related business
Manufacturer
Unknown
Mission
Spacecraft
Bus & Motor
Unknown
Mass
Unknown
Launch date (UTC)
1974-11-15 (52 years ago)
Launch vehicle
Unknown
Launch site
Air Force Western Test Range (AFWTR)
Object type
Payload
Rocket body
Debris
Shape & HBR
Unknown shape, 0.5 m
Radar Cross Section
Medium (>0.1 m² and <1 m²)

Expand to show TLE details & history
Last TLE update: 14 hours ago

TLE from 14 hours ago
0 THORAD DELTA 1 DEB
1 08140U 74089J   26207.37666001 -.00000006  00000-0  26833-3 0  9999
2 08140 102.0416 166.2092 0043409 132.5009  20.0389 12.46736017352363
Epoch: 2026-07-26T09:02Z
TLE epoch observation values (Epoch: 2026-07-26T09:02:23.424Z)
Latitude
26.67664°
Longitude
-87.34164°
Altitude
1,449.09 km
Speed
7.154 km/s
True Right ascension
23h 29m 19s
True Declination
26° 33' 04"
Sunlit
Object was in daylight at epoch
Visualization orbit readout
Latitude
Unknown
Longitude
Unknown
Altitude
Unknown
Speed
Unknown
Apparent Right ascension
Unknown
Apparent Declination
Unknown
Sunlit
N/A
Visualization observer readout
Local Sidereal Time
12:17:56
Azimuth
Unknown
Elevation
Unknown
Doppler factor
Unknown
Orbital elements
Apogee altitude
1,509.838 km
Perigee altitude
1,441.653 km
Semi-major axis
7,853.882 km
Eccentricity
0.00434
Inclination
102.0416°
RAAN
166.2092°
Arg. of periapsis
132.5009°
True anomaly
20.21022°
Mean anomaly
20.0389°
Eccentric anomaly
20.12447°
Mean motion
3.11829 °/min
Orbital period
115.45 mins
BSTAR
0.00026833
Loading maneuver chart data...
Computing Atmospheric mass density...

Documentation

Showing up to 5 results
|